Flag for Austria Weather past 2 weeks in Bruck an der Leitha, Lower Austria, Austria

Now
50 °F

Overcast.


Feels Like: 47 °F
Forecast: 38 / 56 °F
Wind: 8 mph from Northwest

Location: Wien / Schwechat-Flughafen

Current Time: Mar 30, 2015 at 3:17:06 PM

Latest Report: Mar 30, 2015 at 2:00 PM


Visibility: 28 mi

Pressure: 29.56 "Hg

Humidity: 73%

Dew point: 42 °F

Location of Bruck an der LeithaLocation

Historic Weather in Bruck an der Leitha — Graph

°F

Bruck an der Leitha temperature yesterday

Maximum temperature yesterday: 58 °F (at 4:00 PM)
Minimum temperature yesterday: 31 °F (at 5:00 AM)
Average temperature yesterday: 46 °F

Past Weeks' High & Low Weather Summary

 TemperatureHumidityPressure
High63 °F (Mar 26, 5:00 PM)91% (Mar 16, 6:00 AM)30.54 "Hg (Mar 16, 6:00 AM)
Low27 °F (Mar 20, 5:00 AM)32% (Mar 18, 3:00 PM)29.47 "Hg (Mar 30, 5:00 AM)
Average46 °F66%30.08 "Hg
* Reported Mar 15 1:00 PM — Mar 30 2:00 PM, Bruck an der Leitha, Weather by CustomWeather, © 2015

Note: Actual official high and low records may vary slightly from our data, if they occured in-between our weather recording intervals... More about our weather records

Advertising

Bruck an der Leitha weather history for previous 24 hours

 ConditionsComfort  
Time TempWeatherWind HumidityBarometerVisibility
2:00 PM
Mon, Mar 30
50 °FOvercast.8 mph73%29.56 "Hg28 mi
1:00 PM49 °FLight rain. Overcast.8 mph86%29.54 "Hg13 mi
12:00 PM51 °FHeavy rain. Overcast.8 mph75%29.50 "Hg14 mi
11:00 AM49 °FLight rain. Overcast.6 mph85%29.50 "Hg19 mi
10:00 AM47 °FOvercast.N/A82%29.54 "Hg25 mi
9:00 AM46 °FLight rain. Overcast.N/A89%29.55 "Hg14 mi
8:00 AM46 °FSprinkles. Overcast.9 mph87%29.55 "Hg2 mi
7:00 AM55 °FOvercast.10 mph59%29.50 "Hg31 mi
6:00 AM53 °FOvercast.8 mph66%29.47 "Hg31 mi
5:00 AM52 °FOvercast.8 mph70%29.47 "Hg28 mi
4:00 AM52 °FOvercast.8 mph72%29.50 "Hg28 mi
3:00 AM50 °FOvercast.7 mph82%29.54 "Hg31 mi
2:00 AM50 °FOvercast.7 mph84%29.57 "Hg25 mi
1:00 AM51 °FOvercast.7 mph81%29.58 "Hg31 mi
12:00 AM50 °FOvercast.6 mph88%29.61 "Hg28 mi
11:00 PM
Sun, Mar 29
53 °FOvercast.7 mph72%29.64 "Hg31 mi
10:00 PM52 °FLight rain. Overcast.8 mph77%29.68 "Hg6 mi
9:00 PM52 °FLight rain. Overcast.5 mph83%29.71 "Hg22 mi
8:00 PM52 °FLight rain. Overcast.6 mph82%29.70 "Hg10 mi
7:00 PM54 °FLight rain. Overcast.5 mph76%29.70 "Hg14 mi
6:00 PM56 °FOvercast.5 mph65%29.69 "Hg28 mi
5:00 PM56 °FOvercast.3 mph67%29.71 "Hg28 mi
4:00 PM58 °FOvercast.7 mph59%29.74 "Hg28 mi
3:00 PM57 °FOvercast.8 mph60%29.75 "Hg19 mi
Weather by CustomWeather, © 2015

See weather overviewHow to use our weather pages